Airderas, Indonesia

4:17 PM WIB on February 21, 2017 (GMT +0700)
Sultan Syarif Kasim Ii

Weather History for WIBB - March, 2013

Change the Weather History Date:

Saturday, March 23, 2013

  Actual Average Record
Temperature  
Mean Temperature 84 °F -  
Max Temperature 95 °F - - ()
Min Temperature 73 °F - - ()
Cooling Degree Days 19    
Growing Degree Days 34 (Base 50)    
Moisture  
Dew Point 76 °F    
Average Humidity 77    
Maximum Humidity 100    
Minimum Humidity 43    
Precipitation  
Precipitation 0.83 in - - ()
Sea Level Pressure  
Sea Level Pressure 29.75 in    
Wind  
Wind Speed 3 mph ()    
Max Wind Speed 17 mph    
Max Gust Speed -    
Visibility 4.6 miles    
Events Fog , Rain , Thunderstorm    
T = Trace of Precipitation, MM = Missing Value Source: Averaged Metar Reports

Daily Weather History Graph

Daily Weather History Graph

Search for Another Location

Airport or City:

Trip Planner

Search our weather history database for the weather conditions in past years. The results will help you decide how hot, cold, wet, or windy it might be!

Date:

Astronomy

Mar. 23, 2013 Rise Set
Actual Time 6:17 AM WIB 6:24 PM WIB
Civil Twilight 5:56 AM WIB 6:44 PM WIB
Nautical Twilight 5:32 AM WIB 7:08 PM WIB
Astronomical Twilight 5:08 AM WIB 7:32 PM WIB
Moon 3:06 PM WIB (3/23) 2:42 AM WIB (3/23)
Length of Visible Light 12h 47m
Length of Day
12h 06m
Waxing Gibbous, 81% of the Moon is Illuminated
Mar 23
Waxing Gibbous
Mar 27
Full
Apr 3
Last Quarter
Apr 10
New
Apr 18
First Quarter

Hourly Weather History & Observations

Time (WIB) Temp. Heat Index Dew Point Humidity Pressure Visibility Wind Dir Wind Speed Gust Speed Precip Events Conditions
1:00 AM 77 °F - 76 °F 96% 29.82 in 4 mi Calm Calm - -   Haze
4:00 AM 76 °F - 75 °F 96% 29.78 in 2 mi Calm Calm - -   Haze
5:00 AM 75.2 °F - 75.2 °F 100% 29.74 in 1.9 mi Calm Calm - N/A   Scattered Clouds
6:00 AM 75.2 °F - 75.2 °F 100% 29.77 in 1.9 mi Calm Calm - N/A   Scattered Clouds
7:00 AM 74 °F - 74 °F 100% 29.78 in 2 mi Calm Calm - -   Haze
7:00 AM 75.2 °F - 73.4 °F 94% 29.77 in 0.6 mi Calm Calm - N/A Fog Fog
9:00 AM 80.6 °F 86.2 °F 75.2 °F 84% 29.80 in 6.2 mi Calm Calm - N/A   Partly Cloudy
10:00 AM 85 °F - 77 °F 72% 29.81 in 6 mi SE 8.1 mph - -   Scattered Clouds
10:00 AM 86.0 °F 96.9 °F 77.0 °F 74% 29.80 in 6.2 mi SE 8.1 mph - N/A   Partly Cloudy
11:00 AM 87.8 °F 99.7 °F 77.0 °F 70% 29.80 in 6.2 mi SE 9.2 mph - N/A   Scattered Clouds
12:00 PM 91.4 °F 102.5 °F 75.2 °F 59% 29.77 in 6.2 mi SSE 6.9 mph - N/A   Mostly Cloudy
1:00 PM 92 °F - 77 °F 53% 29.75 in 6 mi SSE 6.9 mph - -   Partly Cloudy
1:00 PM 91.4 °F 105.1 °F 77.0 °F 63% 29.74 in 6.2 mi SSE 6.9 mph - N/A   Mostly Cloudy
2:00 PM 93.2 °F 107.2 °F 77.0 °F 59% 29.71 in 6.2 mi Calm Calm - N/A   Scattered Clouds
3:00 PM 93.2 °F 110.2 °F 78.8 °F 63% 29.68 in 6.2 mi East 5.8 mph - N/A   Scattered Clouds
4:00 PM 95 °F - 75 °F 43% 29.67 in 6 mi Calm Calm - -   Partly Cloudy
4:00 PM 95.0 °F 107.4 °F 75.2 °F 53% 29.65 in 6.2 mi Calm Calm - N/A   Scattered Clouds
5:00 PM 93.2 °F 107.2 °F 77.0 °F 59% 29.65 in 6.2 mi SW 5.8 mph - N/A   Scattered Clouds
6:00 PM 89.6 °F 104.7 °F 78.8 °F 70% 29.68 in 6.2 mi SSW 5.8 mph - N/A   Scattered Clouds
7:00 PM 86 °F - 78 °F 72% 29.73 in 5 mi NE 17.3 mph - - Thunderstorm Thunderstorm
7:00 PM 86.0 °F 99.3 °F 78.8 °F 79% 29.71 in 5.0 mi NE 15.0 mph - N/A Thunderstorm Thunderstorm
7:30 PM 82.4 °F 88.2 °F 73.4 °F 74% 29.74 in 4.3 mi NE 6.9 mph - N/A Thunderstorm Thunderstorm
8:00 PM 78.8 °F - 73.4 °F 83% 29.80 in 3.7 mi East 5.8 mph - N/A Rain , Thunderstorm Thunderstorms and Rain
9:00 PM 73.4 °F - 73.4 °F 100% 29.83 in 1.9 mi West 5.8 mph - N/A Rain , Thunderstorm Thunderstorms and Rain
10:00 PM 75 °F - 75 °F 99% 29.83 in 2 mi Calm Calm - - Rain , Thunderstorm Thunderstorms and Rain